Cozumel, Mexico

6:21 AM EST on September 21, 2017 (GMT -0500)
Cozumel

Weather History for MMCZ - July, 2013

Change the Weather History Date:

Wednesday, July 10, 2013

  Actual Average Record
Temperature  
Mean Temperature 76 °F -  
Max Temperature 82 °F 88 °F 93 °F (1996)
Min Temperature 69 °F 76 °F 69 °F (2013)
Cooling Degree Days 10    
Growing Degree Days 26 (Base 50)    
Moisture  
Dew Point 72 °F    
Average Humidity 90    
Maximum Humidity 100    
Minimum Humidity 74    
Precipitation  
Precipitation 0.00 in - - ()
Sea Level Pressure  
Sea Level Pressure 30.02 in    
Wind  
Wind Speed 3 mph ()    
Max Wind Speed 9 mph    
Max Gust Speed -    
Visibility 7.1 miles    
Events Rain    
Averages and records for this station are not official NWS values.
T = Trace of Precipitation, MM = Missing Value Source: Averaged Metar Reports

Daily Weather History Graph

Daily Weather History Graph

Search for Another Location

Airport or City:

Trip Planner

Search our weather history database for the weather conditions in past years. The results will help you decide how hot, cold, wet, or windy it might be!

Date:

Astronomy

Jul. 10, 2013 Rise Set
Actual Time 6:14 AM CDT 7:32 PM CDT
Civil Twilight 5:49 AM CDT 7:56 PM CDT
Nautical Twilight 5:20 AM CDT 8:25 PM CDT
Astronomical Twilight 4:50 AM CDT 8:55 PM CDT
Moon 8:12 AM CDT (7/10) 9:08 PM CDT (7/10)
Length of Visible Light 14h 06m
Length of Day
13h 17m
Waxing Crescent, 5% of the Moon is Illuminated
Jul 10
Waxing Crescent
Jul 15
First Quarter
Jul 22
Full
Jul 29
Last Quarter
Aug 6
New

Hourly Weather History & Observations

Time (CDT) Temp. Heat Index Dew Point Humidity Pressure Visibility Wind Dir Wind Speed Gust Speed Precip Events Conditions
12:40 AM 73.4 °F - 71.6 °F 94% 30.02 in 7.0 mi Calm Calm - N/A   Scattered Clouds
1:40 AM 73.4 °F - 71.6 °F 94% 30.03 in 7.0 mi East 3.5 mph - N/A   Scattered Clouds
2:40 AM 73.4 °F - 71.6 °F 94% 30.01 in 7.0 mi Calm Calm - N/A   Scattered Clouds
3:40 AM 73.4 °F - 71.6 °F 94% 30.04 in 7.0 mi Calm Calm - N/A   Scattered Clouds
4:40 AM 73.4 °F - 71.6 °F 94% 30.00 in 7.0 mi Calm Calm - N/A   Scattered Clouds
5:41 AM 71.6 °F - 69.8 °F 94% 30.00 in 7.0 mi East 3.5 mph - N/A   Scattered Clouds
6:40 AM 71.6 °F - 69.8 °F 94% 29.98 in 7.0 mi Calm Calm - N/A   Scattered Clouds
7:45 AM 77.0 °F - 75.2 °F 94% 30.03 in 7.0 mi Calm Calm - N/A   Scattered Clouds
8:42 AM 80.6 °F 86.2 °F 75.2 °F 84% 30.05 in 7.0 mi East 3.5 mph - N/A   Scattered Clouds
9:45 AM 80.6 °F 85.4 °F 73.4 °F 79% 30.08 in 8.0 mi ENE 6.9 mph - N/A   Mostly Cloudy
10:41 AM 80.6 °F 85.4 °F 73.4 °F 79% 30.05 in 8.0 mi East 5.8 mph - N/A   Mostly Cloudy
11:40 AM 82.4 °F 88.2 °F 73.4 °F 74% 30.05 in 8.0 mi ENE 9.2 mph - N/A   Mostly Cloudy
12:43 PM 77.0 °F - 71.6 °F 83% 30.04 in 7.0 mi East 6.9 mph - N/A Rain Light Rain
1:41 PM 75.2 °F - 73.4 °F 94% 30.02 in 7.0 mi East 3.5 mph - N/A   Mostly Cloudy
2:40 PM 78.8 °F - 75.2 °F 89% 30.01 in 7.0 mi ENE 4.6 mph - N/A   Mostly Cloudy
3:41 PM 78.8 °F - 75.2 °F 89% 30.01 in 7.0 mi ENE 6.9 mph - N/A   Mostly Cloudy
4:42 PM 80.6 °F 85.4 °F 73.4 °F 79% 29.98 in 7.0 mi ENE 6.9 mph - N/A   Mostly Cloudy
5:41 PM 78.8 °F - 73.4 °F 83% 29.97 in 7.0 mi East 5.8 mph - N/A   Mostly Cloudy
6:40 PM 75.2 °F - 73.4 °F 94% 29.97 in 7.0 mi ENE 4.6 mph - N/A   Overcast
7:41 PM 73.4 °F - 71.6 °F 94% 30.01 in 7.0 mi Calm Calm - N/A   Mostly Cloudy
8:45 PM 69.8 °F - 69.8 °F 100% 30.02 in 7.0 mi South 4.6 mph - N/A   Mostly Cloudy
9:51 PM 69.8 °F - 69.8 °F 100% 30.05 in 7.0 mi West 4.6 mph - N/A   Mostly Cloudy
10:40 PM 73.4 °F - 69.8 °F 88% 30.02 in 7.0 mi West 4.6 mph - N/A   Overcast
11:48 PM 73.4 °F - 71.6 °F 94% 30.02 in 7.0 mi NW 4.6 mph - N/A   Overcast